sat.trackr.live / text

‹ back to catalog

UNKNOWN

NORAD 82854

UNKNOWN UNKNOWN UNKNOWN

§ Identity

Operator
Country
Launch date
Launch site
Launch vehicle
Mass (kg)
RCS (m²)

External: N2YO · Heavens-Above

§ Orbital elements

Epoch: 2026-05-19T04:16:07.441824Z

Period
103.72 min
Inclination
82.6861°
Eccentricity
0.0129908
Mean motion
13.88376446 rev/d
Perigee alt
839.3 km
Apogee alt
1,029.3 km
Semi-major
7,312.5 km
B*
8.1920e-4
RAAN
301.0573°
Arg perigee
194.2704°
Mean anomaly
165.4777°
Rev number
62,964

§ Raw data

UNKNOWN1 82854U          26139.17786391  .00001065  00000+0  81920-3 0  99942 82854  82.6861 301.0573 0129908 194.2704 165.4777 13.88376446629649

JSON: /api/v1/satellites/82854 · /tle

For live sub-satellite position, see the globe view (requires WebGL).

§ Visibility from observer

Set your observer location to see the next 7 days of passes ≥ 10°. The values pass through the URL so the page stays shareable.

No JS? Fill the form by hand. The geolocation button needs JavaScript.